Regional Weather Roundup
Issued by NWS

Home | Current Version | Previous Version | Text Only | Print | Product List | Glossary Off
Versions: 1 2 3 4 5 6 7 8 9 10 11 12 13 14 15 16 17 18 19 20 21 22 23 24 25 26 27 28 29 30 31 32 33 34 35 36 37 38 39 40 41 42 43 44 45 46 47 48 49 50

000
ASUS43 KMKX 250400
RWRWI

WISCONSIN REGIONAL WEATHER ROUNDUP
NATIONAL WEATHER SERVICE MILWAUKEE/SULLIVAN WI
1000 PM CST FRI FEB 24 2017

NOTE: "FAIR" INDICATES FEW OR NO CLOUDS BELOW 12,000 FEET WITH NO
SIGNIFICANT WEATHER AND/OR OBSTRUCTIONS TO VISIBILITY.

WIZ001-002-006>008-014>016-023>028-250500-
NORTHWEST WISCONSIN

CITY           SKY/WX    TMP DP  RH WIND       PRES   REMARKS
SUPERIOR ARPT  CLOUDY    19   7  59 N12G18    29.91S WCI   7
ASHLAND        CLOUDY    20   8  60 N12       29.84S WCI   8
HAYWARD        CLOUDY    19   5  54 N8G21     29.81S WCI   9
SIREN          PTCLDY    20   9  61 N13G20    29.87S WCI   8
CUMBERLAND     CLOUDY    19   9  63 N18       29.81S WCI   4
RICE LAKE      CLOUDY    20  11  68 CALM      29.83S
CHETEK         CLOUDY    19  10  70 N7        29.81F WCI   9
LADYSMITH      LGT SNOW  17  14  88 NW14      29.79S WCI   3
EAU CLAIRE     LGT SNOW  18  14  84 N9        29.81S FOG     WCI   7
MENOMONIE      CLOUDY    20  13  73 N7        29.83S WCI  12
NEW RICHMOND   CLOUDY    22   9  58 N15G22    29.85S WCI   8
OSCEOLA        CLOUDY    22  10  59 N14       29.90S WCI   9
$$

WIZ003>005-009-010-017-018-250500-
NORTH CENTRAL WISCONSIN

CITY           SKY/WX    TMP DP  RH WIND       PRES   REMARKS
MANITOWISH WTR LGT SNOW  15  14  95 N7        29.71R WCI   5
ARBOR VITAE    LGT SNOW  18  14  84 N14         N/A  VSB 1   WCI   4
WOODRUFF       LGT SNOW  18  14  84 N14         N/A  VSB 1   WCI   4
RHINELANDER    LGT SNOW  18  16  93 NW8       29.66F VSB 3/4 WCI   7
EAGLE RIVER    LGT SNOW  17  13  83 N14G21    29.66R WCI   3
LAND O LAKES   LGT SNOW  17  14  86 N10G18    29.68R WCI   5
PHILLIPS       LGT SNOW  15  13  91 N8        29.73S WCI   4
TOMAHAWK       LGT SNOW  17  13  88 N9        29.69F VSB 1   WCI   5
MEDFORD        LGT SNOW  16  13  85 N14G21    29.68F WCI   2
MERRILL        NOT AVBL
$$

WIZ029-030-035-036-043>047-250500-
CENTRAL WISCONSIN

CITY           SKY/WX    TMP DP  RH WIND       PRES   REMARKS
WAUSAU         LGT SNOW  18  15  88 NW9       29.65F FOG     WCI   7
MOSINEE        LGT SNOW  18  18 100 N17G24    29.66F WCI   2
MARSHFIELD     LGT SNOW  18  13  80 N18G25    29.67F WCI   2
STEVENS POINT  LGT SNOW  18  16  91 NW9       29.66S WCI   7
WAUPACA        CLOUDY    24  20  86 NW8       29.64S FOG     WCI  14
WAUTOMA        FLURRIES  21  19  93 NW12      29.66R WCI   9
WISC RAPIDS    FLURRIES  20  16  84 N13G22    29.69R WCI   7
CAMP DOUGLAS   FLURRIES  21  18  86 NW10      29.70R WCI  10
$$

WIZ011>013-019>022-031-037>040-048>050-250500-
NORTHEAST WISCONSIN

CITY           SKY/WX    TMP DP  RH WIND       PRES   REMARKS
ANTIGO         LGT SNOW  17  13  87 N14       29.62F WCI   3
SHAWANO        CLOUDY    23  20  85 CALM      29.62F
OCONTO         CLOUDY    23  20  91 NW10G17   29.59S WCI  12
STURGEON BAY   MIX PCPN  25  23  92 MISG      29.55F FOG
GREEN BAY      CLOUDY    24  23  96 N15G22    29.59F FOG     WCI  11
MANITOWOC      NOT AVBL
APPLETON       CLOUDY    21  21 100 N13       29.58F FOG     WCI   9
CLINTONVILLE   LGT SNOW  23  19  86 N13       29.62F WCI  11
OSHKOSH        FRZ RAIN  24  21  88 NW14G22   29.60S FOG     WCI  12
$$

WIZ032>034-041-042-053>061-250500-
SOUTHWEST WISCONSIN

CITY           SKY/WX    TMP DP  RH WIND       PRES   REMARKS
LA CROSSE      CLOUDY    22  16  78 N21G31    29.77S HAZE    WCI   6
SPARTA         LGT SNOW  21  19  90 NW15G22   29.74S WCI   8
VIROQUA        CLOUDY    20  18  91 N13       29.68F WCI   8
BOSCOBEL       LGT SNOW  26  20  77 NW12G20   29.72R WCI  16
PRAIRIE DU CHI LGT SNOW  24  20  82 NW13G23   29.73S WCI  13
PLATTEVILLE    CLOUDY    27  26  96 NW6       29.66S WCI  20
$$

WIZ056-057-062-063-064-067-068-250500-
SOUTH CENTRAL WISCONSIN

CITY           SKY/WX    TMP DP  RH WIND       PRES   REMARKS
REEDSBURG      LGT SNOW  24  22  94 NW10      29.66S WCI  13
BARABOO/DELLS  CLOUDY    23  20  89 N9        29.65R WCI  13
LONE ROCK      LGT SNOW  26  20  77 N12       29.69R WCI  16
MINERAL POINT  LGT SNOW  28  28 100 NW3       29.64S
MADISON        LGT SNOW  26  23  88 N10       29.63R WCI  16
MIDDLETON      CLOUDY    28  27  94 N6        29.64R WCI  22
WATERTOWN      CLOUDY    26  26 100 N10       29.59F FOG     WCI  17
MONROE         LGT SNOW  28  27  93 NW10      29.61F WCI  19
JANESVILLE     CLOUDY    30  30 100 N9G16     29.61F WCI  22
$$

WIZ051-052-058>065-066-070>072-250500-
SOUTHEAST WISCONSIN

CITY           SKY/WX    TMP DP  RH WIND       PRES   REMARKS
MILWAUKEE      CLOUDY    30  26  85 NW8       29.58R WCI  22
WAUKESHA       CLOUDY    27  23  86 NW14      29.59R WCI  15
MILWAUKEE/TIMM FLURRIES  28  25  86 NW13      29.58S WCI  18
RACINE         CLOUDY    31  27  85 NW12      29.60R WCI  22
KENOSHA        CLOUDY    31  27  85 NW9       29.58R WCI  23
FOND DU LAC    MIX PCPN  26  21  81 N17G25    29.60S WCI  13
SHEBOYGAN      LGT SNOW  26  22  84 NW16      29.55S FOG     WCI  14
WEST BEND      LGT SNOW  27  27 100 CALM      29.57S
JUNEAU         MIX PCPN  26  25  96 NW5       29.60F WCI  20
$$

LSZ147-162-250500-
LAKE SUPERIOR

STATION/POSITION TIME  TEMP    WIND        PRES    WAVE
                       AIR SEA DIR/SP/G            HT/PER
                 (UTC) (F)     (DEG/KT/KT) (MB)    (FT/S)
DEVILS ISLAND    0300   21      10/ 19/ 23 1012.2S
PORT WING        0330   22     350/ 21/ 25 1012.2R
SAXON HARBOR     0330   23     360/ 16/ 21 1010.2S
$$

LMZ867-665-643>646-250500-
LAKE MICHIGAN

STATION/POSITION TIME  TEMP    WIND        PRES    WAVE
                       AIR SEA DIR/SP/G            HT/PER
                 (UTC) (F)     (DEG/KT/KT) (MB)    (FT/S)
CHAMBERS ISLAND  0140   27     350/  4/  5 1001.4F
NORTHPORT PIER   0340   28     360/  4/  5 1000.7S
SISTER BAY       0305   27        CALM       N/A
KEWAUNEE LAKESHO 0330   27     340/ 11/ 16 1000.1F
SHEBOYGAN LAKESH 0300   27     330/  7/  9 1001.3R
PORT WASHINGTON  0340   27     320/  8/ 16 1002.7R
MILWAUKEE LAKESH 0320   29     300/ 10/ 14   N/A
KENOSHA   LAKESH 0300   32     300/  9/ 17 1001.4
$$

TC  - TEMPERATURE IN CELSIUS
VSB - VISIBILITY IN STATUTE MILES
WCI - WIND CHILL INDEX
HX  - HEAT INDEX





USA.gov is the U.S. government's official web portal to all federal, state and local government web resources and services.